CAPE
0 0 0 0 0 0 0 0 0 0 0 0 0 0 0 0 0 0 0 0 0 12 191 271 330 379 333 160 83 34 4 0 4 0 2 21 0 0 0 0 13 9 5 4 8 6 2 2 2
0 0 0 0 0 0 0 0 0 0 0 0 0 0 0 0 0 0 0 0 0 10 183 238 248 228 146 111 87 87 23 0 8 0 0 42 8 0 0 1 1 5 2 5 8 6 9 13 15
0 0 0 0 0 0 0 0 0 0 0 0 0 0 0 0 0 0 0 0 0 4 138 117 169 123 113 104 63 16 1 0 0 0 0 96 15 0 0 3 3 3 3 7 7 5 10 24 19
0 0 0 0 0 0 0 0 0 0 0 0 0 0 0 0 0 0 0 0 0 6 69 63 100 102 73 18 2 0 0 0 0 0 0 9 13 0 0 2 2 5 4 6 7 6 11 8 10
0 0 0 0 0 0 0 0 0 0 0 0 0 0 0 0 0 0 0 0 0 0 19 58 76 50 24 1 0 0 0 0 0 0 2 0 10 7 0 8 3 3 5 7 5 4 0 0 0
0 0 0 0 0 0 0 0 0 0 0 0 0 0 0 0 0 0 0 0 0 0 0 17 10 5 0 0 0 0 0 0 0 0 0 0 2 9 5 0 1 4 6 7 4 0 0 0 0
0 0 0 0 0 0 0 0 0 0 0 0 0 0 0 0 0 1 1 0 0 0 0 0 0 0 0 0 0 0 0 0 0 0 1 0 2 10 5 1 0 5 2 4 0 0 0 0 0
0 0 0 0 0 0 0 0 0 0 0 0 0 0 0 0 0 0 12 17 4 0 0 0 0 0 0 0 0 0 0 0 0 0 0 0 0 10 3 0 0 1 1 2 0 0 0 0 0
0 0 0 0 0 0 0 0 0 0 0 0 0 0 0 0 0 0 12 23 32 16 0 0 0 0 0 0 0 0 0 0 0 0 0 0 0 4 6 4 1 2 2 0 0 0 0 0 0
0 0 0 0 0 0 0 0 0 0 0 0 0 0 0 0 0 0 13 36 26 16 6 2 0 0 0 0 0 0 0 0 0 0 0 0 0 0 1 2 0 1 0 0 0 0 0 0 0
0 0 0 0 0 0 0 0 0 0 0 0 0 0 0 0 0 0 0 18 30 29 32 16 3 0 0 0 0 0 0 0 0 0 0 0 0 0 0 0 2 4 6 0 0 0 0 0 0
0 0 0 0 0 0 0 0 0 0 0 0 0 0 0 0 0 0 0 0 1 11 34 38 17 0 0 0 0 0 0 0 0 0 0 0 0 0 0 0 0 0 0 0 0 0 0 0 0
0 0 0 0 0 0 0 0 0 0 0 0 0 0 0 0 0 0 0 0 0 0 13 18 8 5 0 0 0 0 0 0 0 0 0 0 0 0 0 0 0 0 0 0 0 0 0 0 0
0 0 0 0 0 0 0 0 0 0 0 0 0 0 0 0 0 0 0 0 0 0 0 0 0 0 0 0 0 0 1 0 0 0 0 0 0 0 0 0 0 0 0 0 0 0 0 0 0
0 0 0 0 0 0 0 0 0 0 0 0 0 0 0 0 0 0 0 0 0 0 0 0 0 0 0 0 0 0 0 1 0 0 0 0 0 0 0 0 0 0 0 0 0 0 0 0 0
0 0 0 0 0 0 0 0 0 0 0 0 0 0 0 0 0 0 0 0 0 0 0 0 0 0 0 0 0 0 0 0 0 0 0 0 0 0 0 0 0 0 0 0 0 0 0 0 0
3 0 0 0 0 0 0 0 0 0 0 0 0 0 0 0 0 0 0 0 0 0 0 0 0 0 0 0 0 0 0 0 0 0 0 0 0 0 0 0 0 0 0 0 0 0 0 0 0
0 0 0 0 0 0 0 0 0 0 0 0 0 0 0 0 0 0 0 0 0 0 0 0 0 0 0 0 0 0 0 0 0 0 0 0 0 0 0 0 0 0 0 0 0 0 0 0 0
4 0 0 0 0 0 0 0 0 0 0 0 0 0 0 0 0 0 0 0 0 0 0 0 0 0 0 0 0 0 0 0 0 0 0 0 0 0 0 0 0 0 0 0 0 0 0 0 0
8 8 8 20 28 20 4 0 0 0 0 0 0 0 0 0 0 0 0 0 0 0 0 0 0 0 0 0 0 0 0 0 0 0 0 0 0 0 0 0 0 0 0 0 0 0 0 0 0
3 0 10 0 0 0 0 0 0 0 0 0 0 0 0 0 0 0 0 0 0 0 0 0 0 0 0 0 0 0 0 0 0 0 0 0 0 0 0 0 0 0 0 0 0 0 0 0 0
0 0 0 1 9 2 0 0 0 0 0 0 0 0 0 0 0 0 0 0 0 0 0 0 0 0 0 0 0 0 0 0 0 0 0 0 0 0 0 0 0 0 0 0 0 0 0 0 0
0 0 0 23 13 11 0 10 0 0 0 0 0 0 0 0 0 0 0 0 0 0 0 0 0 0 0 0 0 0 0 0 0 0 0 0 0 0 0 0 0 0 0 0 0 0 0 0 0
0 17 14 15 9 4 0 2 0 0 0 0 0 0 0 0 0 0 0 0 0 0 0 0 0 0 0 0 0 0 0 0 1 0 0 0 0 0 0 0 0 0 0 0 0 0 0 0 0
22 18 1 1 2 0 0 0 0 0 0 0 0 0 0 0 0 0 0 0 0 0 0 0 0 0 0 0 0 0 0 2 9 11 0 0 0 0 0 0 0 0 0 0 0 0 0 0 0
0 0 2 0 0 0 0 0 0 0 0 0 0 0 0 0 0 0 0 0 0 0 0 0 0 0 0 0 9 37 36 34 33 30 18 1 0 0 0 0 0 0 0 0 0 0 0 0 0
0 0 0 0 0 0 0 0 0 0 0 0 0 0 0 0 0 0 0 0 0 0 0 0 0 0 0 0 39 78 113 85 68 68 61 32 25 2 0 0 0 0 0 0 0 0 0 0 0
0 0 0 4 1 0 0 0 0 0 0 0 0 0 0 0 0 0 0 0 0 0 0 0 0 0 0 0 0 0 16 157 189 147 143 114 75 57 2 0 0 0 0 0 0 0 0 0 0
0 5 13 3 5 0 0 0 0 0 0 0 0 0 0 0 0 0 0 0 0 0 0 0 0 0 0 0 0 0 0 0 22 183 251 252 197 136 84 23 9 4 0 0 1 1 1 1 0
0 0 6 29 0 0 0 0 0 0 0 0 0 0 0 0 0 0 0 0 0 0 0 0 0 0 0 0 0 0 0 0 0 0 8 249 280 266 179 114 45 11 2 1 1 2 1 2 1
CIN
-0 -0 -0 -0 -0 -0 -0 -0 -0 -0 -0 -0 -0 -0 -0 -0 -0 -0 -0 -0 -0 -134 -47 -16 -1 -1 -4 -12 -50 -132 -236 -0 -1 -0 -0 -0 -0 -0 -0 -0 -1 -3 -0 -0 -0 -0 -1 -0 -3
-0 -0 -0 -0 -0 -0 -0 -0 -0 -0 -0 -0 -0 -0 -0 -0 -0 -0 -0 -0 -0 -45 -36 -32 -15 -3 -21 -39 -59 -71 -192 -0 -61 -0 -0 -62 -0 -0 -0 -0 -0 -0 -0 -0 -1 -0 -0 -1 -6
-0 -0 -0 -0 -0 -0 -0 -0 -0 -0 -0 -0 -0 -0 -0 -0 -0 -0 -0 -0 -0 -35 -48 -36 -27 -10 -34 -46 -97 -193 -97 -0 -0 -0 -0 -93 -0 -0 -0 -0 -1 -0 -0 -0 -0 -1 -0 -0 -12
-0 -0 -0 -0 -0 -0 -0 -0 -0 -0 -0 -0 -0 -0 -0 -0 -0 -0 -0 -0 -0 -60 -64 -30 -21 -33 -43 -168 -183 -0 -0 -0 -0 -0 -0 -2 -0 -0 -0 -0 -1 -0 -0 -0 -0 -0 -0 -9 -16
-0 -0 -0 -0 -0 -0 -0 -0 -0 -0 -0 -0 -0 -0 -0 -0 -0 -0 -0 -0 -0 -0 -81 -44 -31 -53 -168 -226 -0 -0 -0 -0 -0 -0 -1 -0 -4 -10 -2 -2 -3 -0 -0 -0 -0 -0 -0 -0 -0
-0 -0 -0 -0 -0 -0 -0 -0 -0 -0 -0 -0 -0 -0 -0 -0 -0 -0 -0 -0 -0 -0 -48 -81 -65 -75 -0 -0 -0 -0 -0 -0 -0 -0 -0 -0 -3 -9 -7 -0 -1 -0 -0 -0 -0 -0 -0 -0 -0
-0 -0 -0 -0 -0 -0 -0 -0 -0 -0 -0 -0 -0 -0 -0 -0 -0 -67 -45 -0 -0 -0 -0 -0 -0 -0 -0 -0 -0 -0 -0 -0 -0 -0 -2 -0 -1 -8 -9 -6 -0 -0 -0 -0 -0 -0 -0 -0 -0
-0 -0 -0 -0 -0 -0 -0 -0 -0 -0 -0 -0 -0 -0 -0 -0 -0 -0 -165 -132 -118 -2 -0 -0 -0 -0 -0 -0 -0 -0 -0 -0 -0 -0 -0 -0 -0 -12 -10 -0 -0 -2 -0 -0 -0 -0 -0 -0 -0
-0 -0 -0 -0 -0 -0 -0 -0 -0 -0 -0 -0 -0 -0 -0 -0 -0 -0 -167 -149 -129 -113 -0 -0 -0 -0 -0 -0 -0 -0 -0 -0 -0 -0 -0 -0 -0 -4 -4 -3 -3 -2 -2 -0 -0 -0 -0 -0 -0
-0 -0 -0 -0 -0 -0 -0 -0 -0 -0 -0 -0 -0 -0 -0 -0 -0 -0 -171 -158 -160 -179 -191 -104 -0 -0 -0 -0 -0 -0 -0 -0 -0 -0 -0 -0 -0 -0 -2 -4 -3 -4 -0 -0 -0 -0 -0 -0 -0
-0 -0 -0 -0 -0 -0 -0 -0 -0 -0 -0 -0 -0 -0 -0 -0 -0 -0 -0 -164 -188 -193 -199 -228 -215 -0 -0 -0 -0 -0 -0 -0 -0 -0 -0 -0 -0 -0 -0 -0 -5 -9 -3 -0 -0 -0 -0 -0 -0
-0 -0 -0 -0 -0 -0 -0 -0 -0 -0 -0 -0 -0 -0 -0 -0 -0 -0 -0 -0 -30 -199 -193 -207 -243 -15 -0 -0 -0 -0 -0 -0 -0 -0 -0 -0 -0 -0 -0 -0 -0 -0 -0 -0 -0 -0 -0 -0 -0
-0 -0 -0 -0 -0 -0 -0 -0 -0 -0 -0 -0 -0 -0 -0 -0 -0 -0 -0 -0 -0 -0 -215 -210 -208 -266 -0 -0 -0 -0 -0 -0 -0 -0 -0 -0 -0 -0 -0 -0 -0 -0 -0 -0 -0 -0 -0 -0 -0
-0 -0 -0 -0 -0 -0 -0 -0 -0 -0 -0 -0 -0 -0 -0 -0 -0 -0 -0 -0 -0 -0 -0 -0 -0 -0 -0 -0 -0 -0 -0 -0 -0 -0 -0 -0 -0 -0 -0 -0 -0 -0 -0 -0 -0 -0 -0 -0 -0
-0 -0 -0 -0 -0 -0 -0 -0 -0 -0 -0 -0 -0 -0 -0 -0 -0 -0 -0 -0 -0 -0 -0 -0 -0 -0 -0 -0 -0 -0 -0 -0 -0 -0 -0 -0 -0 -0 -0 -0 -0 -0 -0 -0 -0 -0 -0 -0 -0
-0 -0 -0 -0 -0 -0 -0 -0 -0 -0 -0 -0 -0 -0 -0 -0 -0 -0 -0 -0 -0 -0 -0 -0 -0 -0 -0 -0 -0 -0 -0 -0 -0 -0 -0 -0 -0 -0 -0 -0 -0 -0 -0 -0 -0 -0 -0 -0 -0
-7 -0 -0 -0 -0 -0 -0 -0 -0 -0 -0 -0 -0 -0 -0 -0 -0 -0 -0 -0 -0 -0 -0 -0 -0 -0 -0 -0 -0 -0 -0 -0 -0 -0 -0 -0 -0 -0 -0 -0 -0 -0 -0 -0 -0 -0 -0 -0 -0
-0 -0 -1 -1 -0 -0 -0 -0 -0 -0 -0 -0 -0 -0 -0 -0 -0 -0 -0 -0 -0 -0 -0 -0 -0 -0 -0 -0 -0 -0 -0 -0 -0 -0 -0 -0 -0 -0 -0 -0 -0 -0 -0 -0 -0 -0 -0 -0 -0
-3 -7 -0 -0 -0 -0 -0 -0 -0 -0 -0 -0 -0 -0 -0 -0 -0 -0 -0 -0 -0 -0 -0 -0 -0 -0 -0 -0 -0 -0 -0 -0 -0 -0 -0 -0 -0 -0 -0 -0 -0 -0 -0 -0 -0 -0 -0 -0 -0
-2 -0 -3 -5 -12 -5 -14 -0 -0 -0 -0 -0 -0 -0 -0 -0 -0 -0 -0 -0 -0 -0 -0 -0 -0 -0 -0 -0 -0 -0 -0 -0 -0 -0 -0 -0 -0 -0 -0 -0 -0 -0 -0 -0 -0 -0 -0 -0 -0
-1 -0 -2 -1 -0 -0 -0 -0 -0 -0 -0 -0 -0 -0 -0 -0 -0 -0 -0 -0 -0 -0 -0 -0 -0 -0 -0 -0 -0 -0 -0 -0 -0 -0 -0 -0 -0 -0 -0 -0 -0 -0 -0 -0 -0 -0 -0 -0 -0
-0 -0 -0 -5 -1 -1 -0 -0 -0 -0 -0 -0 -0 -0 -0 -0 -0 -0 -0 -0 -0 -0 -0 -0 -0 -0 -0 -0 -0 -0 -0 -0 -0 -0 -0 -0 -0 -0 -0 -0 -0 -0 -0 -0 -0 -0 -0 -0 -0
-0 -0 -1 -4 -2 -1 -0 -0 -0 -0 -0 -0 -0 -0 -0 -0 -0 -0 -0 -0 -0 -0 -0 -0 -0 -0 -0 -0 -0 -0 -0 -0 -0 -0 -0 -0 -0 -0 -0 -0 -0 -0 -0 -0 -0 -0 -0 -0 -0
-0 -7 -8 -8 -3 -1 -0 -0 -0 -0 -0 -0 -0 -0 -0 -0 -0 -0 -0 -0 -0 -0 -0 -0 -0 -0 -0 -0 -0 -0 -0 -42 -59 -0 -0 -0 -0 -0 -0 -0 -0 -0 -0 -0 -0 -0 -0 -0 -0
-7 -4 -0 -2 -0 -0 -0 -4 -0 -0 -0 -0 -0 -0 -0 -0 -0 -0 -0 -0 -0 -0 -0 -0 -0 -0 -0 -0 -0 -0 -0 -174 -277 -284 -0 -0 -0 -0 -0 -0 -0 -0 -0 -0 -0 -0 -0 -0 -0
-0 -0 -3 -0 -0 -0 -0 -0 -0 -0 -0 -0 -0 -0 -0 -0 -0 -0 -0 -0 -0 -0 -0 -0 -0 -0 -0 -0 -293 -217 -200 -181 -183 -183 -223 -189 -0 -0 -0 -0 -0 -0 -0 -0 -0 -0 -0 -0 -0
-0 -0 -0 -0 -0 -0 -0 -0 -0 -0 -0 -0 -0 -0 -0 -0 -0 -0 -0 -0 -0 -0 -0 -0 -0 -0 -0 -0 -283 -162 -147 -127 -95 -94 -109 -138 -155 -166 -0 -0 -0 -0 -0 -0 -0 -0 -0 -0 -0
-0 -0 -0 -4 -0 -1 -0 -0 -0 -0 -0 -0 -0 -0 -0 -0 -0 -0 -0 -0 -0 -0 -0 -0 -0 -0 -0 -0 -0 -0 -147 -132 -74 -43 -64 -70 -76 -74 -66 -0 -0 -0 -0 -0 -0 -0 -0 -0 -0
-3 -2 -4 -5 -11 -1 -0 -0 -0 -0 -0 -0 -0 -0 -0 -0 -0 -0 -0 -0 -0 -0 -0 -0 -0 -0 -0 -0 -0 -0 -0 -0 -67 -48 -30 -52 -39 -30 -60 -146 -254 -219 -0 -0 -0 -0 -0 -0 -0
-0 -0 -28 -4 -0 -0 -0 -0 -0 -0 -0 -0 -0 -0 -0 -0 -0 -0 -0 -0 -0 -0 -0 -0 -0 -0 -0 -0 -0 -0 -0 -0 -0 -0 -236 -28 -31 -29 -35 -84 -138 -231 -243 -171 -0 -0 -0 -0 -0
Wind_Speed
24 23 19 16 16 15 15 16 17 17 19 20 20 20 21 20 19 19 16 21 20 20 20 19 18 17 18 17 18 17 17 17 17 17 17 17 17 17 16 16 13 12 13 15 15 16 17 18 18
24 20 17 15 15 14 16 16 15 18 17 19 21 21 21 21 18 18 20 19 21 19 19 19 18 17 16 15 16 15 15 16 16 17 16 16 17 17 17 15 13 12 12 13 14 15 16 17 15
21 18 16 15 15 14 14 14 16 17 16 18 19 20 19 21 17 17 17 21 21 19 17 18 17 15 14 12 12 13 13 13 14 15 15 15 16 16 16 15 12 11 11 13 14 15 16 15 14
20 17 15 14 14 15 15 14 15 16 17 18 17 19 18 16 16 15 18 20 20 19 18 17 16 16 14 11 11 11 12 12 12 14 14 14 14 15 15 13 10 10 11 12 13 14 14 14 15
17 16 15 13 14 16 15 14 13 15 17 17 16 17 19 18 17 17 18 17 17 18 18 17 14 13 12 11 10 11 11 12 12 12 12 11 13 13 13 10 9 9 9 11 12 12 12 13 15
16 15 16 15 16 18 15 14 13 13 15 17 17 16 16 13 14 15 15 15 14 16 16 16 15 11 11 11 9 9 10 11 10 10 11 11 12 12 12 10 9 8 8 9 10 11 12 13 14
16 16 15 16 17 17 18 16 16 14 14 16 15 16 16 14 14 14 14 14 13 11 11 12 13 12 10 8 8 7 7 8 8 8 8 8 9 11 11 9 8 7 8 9 10 11 12 13 13
16 16 16 16 16 16 19 17 16 15 13 15 15 15 18 12 12 13 13 12 12 10 9 7 7 9 9 8 6 7 5 6 7 6 5 5 6 8 9 8 7 6 7 9 10 10 11 12 13
16 19 18 17 17 16 19 18 17 16 15 15 15 15 15 12 10 10 9 9 9 8 8 7 7 5 7 7 5 5 5 4 4 4 3 3 3 5 6 6 6 6 6 7 8 9 11 12 12
19 21 20 17 15 17 19 19 18 17 18 16 16 17 16 10 8 6 5 4 4 5 5 6 4 5 3 4 4 2 2 2 3 3 3 4 3 2 4 4 4 4 4 6 7 9 10 12 12
21 23 20 18 18 20 23 22 19 19 19 17 17 18 13 9 6 4 3 2 3 2 1 3 5 4 3 1 2 1 2 3 4 3 3 2 3 5 4 3 4 4 4 6 8 10 10 11 11
27 25 22 20 19 23 26 22 23 19 18 16 16 19 13 8 5 2 1 2 2 2 3 2 3 4 3 2 3 3 5 6 6 5 4 4 4 5 6 5 4 3 5 6 9 10 10 11 11
28 27 26 25 25 25 24 27 28 23 21 20 23 19 15 10 7 6 5 6 5 6 6 6 5 6 5 5 5 6 6 8 10 9 8 8 8 8 7 8 8 6 6 7 8 9 11 11 11
26 29 30 28 27 27 30 31 26 25 23 23 25 25 22 15 12 11 11 10 8 8 8 8 8 8 8 7 6 8 8 9 10 12 13 11 10 10 10 10 10 10 10 9 9 9 10 11 12
28 35 33 30 28 30 29 39 32 29 29 31 32 34 29 22 17 14 13 13 11 10 10 10 10 10 11 11 10 9 11 11 11 12 14 14 14 14 12 12 13 13 12 12 12 13 14 14 14
29 32 39 32 31 29 28 47 30 30 34 37 37 35 37 33 27 22 18 16 16 15 14 13 13 12 14 14 13 13 10 14 14 14 14 14 16 16 16 16 15 16 15 14 14 14 13 14 14
32 39 36 35 28 29 29 41 29 29 36 42 42 40 40 42 39 31 26 21 19 18 18 18 16 15 16 16 16 15 16 13 16 17 17 16 16 17 18 20 20 18 18 17 16 16 16 16 15
40 40 38 39 32 34 41 50 42 39 40 42 43 44 42 40 39 39 34 29 26 24 21 21 20 19 18 19 19 20 20 20 16 18 20 18 17 18 19 21 22 21 21 20 19 19 18 17 17
37 39 41 36 32 36 41 48 46 41 44 47 46 46 45 42 38 37 36 34 32 29 27 24 23 20 20 21 21 22 23 23 23 19 20 21 20 20 20 22 23 23 22 22 21 21 20 20 20
38 42 42 36 31 37 45 56 50 43 44 46 47 45 44 42 40 38 36 36 34 33 29 27 25 24 23 23 24 25 25 26 26 23 20 22 24 23 23 23 25 25 26 25 23 23 25 24 20
39 42 39 43 38 39 46 65 52 46 42 39 40 40 40 41 43 43 39 37 36 35 31 28 27 25 25 24 25 27 28 29 27 25 25 22 25 26 25 25 24 25 26 28 27 25 24 26 23
45 36 37 39 39 47 32 63 45 44 46 41 40 41 42 43 42 42 42 41 41 38 33 31 29 28 28 27 27 27 29 32 29 28 28 27 24 28 28 27 29 28 28 28 28 27 26 27 27
39 30 32 35 39 43 47 50 51 40 51 49 43 38 37 39 41 44 44 42 40 36 35 35 32 28 27 28 29 29 31 31 31 31 31 29 30 28 31 31 30 31 30 29 29 29 28 28 28
29 33 35 35 37 52 50 43 68 53 48 45 36 39 40 41 40 39 39 40 38 37 38 38 33 29 26 26 28 30 32 32 34 34 34 32 32 31 31 33 32 33 34 31 31 31 31 30 30
30 33 45 48 48 56 39 42 53 48 44 44 43 41 38 33 34 35 36 36 33 35 38 37 34 32 29 28 28 28 30 31 34 35 36 35 34 33 33 33 36 36 38 37 35 34 33 31 32
34 35 43 52 52 52 37 48 49 41 39 37 34 34 31 32 33 34 35 35 33 32 32 32 32 32 31 31 32 32 30 31 33 37 36 36 35 35 36 37 37 39 38 39 38 37 36 34 33
32 39 35 45 44 51 45 45 45 42 43 39 34 29 29 31 32 33 33 33 32 31 30 30 30 30 30 33 35 34 32 33 34 37 38 40 39 38 35 33 32 36 39 40 39 40 40 37 36
30 22 33 33 49 53 44 43 43 33 29 28 29 30 31 32 33 32 32 32 32 32 32 32 33 32 32 34 34 34 35 36 35 35 38 38 40 39 38 35 34 34 36 38 40 41 41 39 39
29 32 29 28 33 44 48 45 33 38 34 27 26 29 30 32 32 32 31 31 32 33 34 34 34 34 35 36 38 37 37 38 38 36 38 37 39 39 39 38 32 38 36 39 40 41 39 40 39
30 32 30 36 35 33 39 45 25 22 21 25 28 29 27 31 33 34 34 34 35 35 37 36 37 37 38 39 40 40 39 39 40 40 41 42 43 41 38 38 39 35 35 35 42 42 41 40 41
Wind_Direction
299 297 339 340 302 317 306 313 346 11 5 30 50 56 53 60 69 63 106 117 102 106 104 100 90 87 89 90 88 82 70 66 65 63 73 69 58 55 53 49 43 38 35 38 35 35 40 44 39
298 313 332 330 307 314 291 312 351 346 15 40 36 38 34 49 76 83 90 115 112 106 107 100 96 88 88 86 88 76 64 62 68 61 68 76 65 61 63 58 48 38 37 33 34 37 36 36 9
308 329 322 322 315 327 343 342 8 8 26 10 14 29 39 31 68 87 99 110 111 109 103 107 96 88 85 74 68 65 56 53 63 59 68 75 70 63 65 62 46 43 32 36 39 40 38 21 359
311 317 331 333 333 329 328 356 2 4 9 12 22 9 46 61 61 91 91 106 107 111 111 106 102 96 91 82 76 71 68 67 63 79 79 65 73 70 68 58 39 32 32 34 40 39 23 10 360
320 329 322 329 326 324 346 356 17 6 10 10 22 20 11 52 68 79 96 99 105 110 117 114 100 92 88 89 81 80 77 74 71 66 75 67 70 77 63 39 32 22 15 27 29 22 13 8 6
316 327 310 308 312 316 342 4 16 21 8 11 12 19 30 62 67 84 93 96 99 107 115 120 119 99 90 89 82 80 77 75 67 75 85 79 75 85 68 55 31 16 359 1 3 359 359 353 356
306 310 308 307 305 320 330 349 355 7 14 6 19 9 22 31 55 80 94 98 101 92 101 112 121 118 107 85 88 80 69 72 69 66 71 67 66 91 82 69 37 12 354 353 357 353 349 349 356
308 307 306 306 306 317 324 335 355 2 7 1 8 13 4 40 58 77 88 94 100 92 98 90 101 117 121 110 89 92 63 63 69 67 48 45 72 75 90 79 56 24 1 346 345 351 353 353 356
306 294 295 300 304 313 324 326 345 355 355 4 8 7 5 22 49 57 67 81 94 97 113 102 119 111 127 129 114 98 88 43 48 53 45 37 34 52 77 55 37 2 2 1 4 356 346 350 354
290 287 292 302 307 310 318 324 330 337 337 346 353 0 7 50 56 55 56 73 95 109 103 121 118 137 129 137 134 117 68 7 357 13 359 332 340 12 10 46 31 29 15 359 349 340 342 343 347
288 284 291 299 303 305 305 310 323 327 325 336 342 347 7 31 47 69 73 68 161 159 114 130 143 149 166 230 178 240 300 305 310 314 321 313 310 313 318 337 351 347 352 334 332 331 332 335 339
279 284 289 297 300 301 298 305 307 315 321 333 338 339 349 356 358 5 202 216 254 221 235 229 189 178 195 254 268 256 278 288 285 282 279 285 287 285 290 294 303 317 321 322 319 320 324 327 329
279 282 285 291 295 297 300 297 298 303 312 317 319 329 332 328 315 301 290 296 269 250 252 251 232 223 213 218 270 272 263 276 284 279 277 280 282 279 278 283 287 287 298 305 311 315 316 318 324
286 282 284 287 292 295 293 294 297 303 309 309 311 314 319 317 305 308 308 286 276 251 261 269 257 240 229 228 248 269 274 273 281 281 279 272 277 276 275 277 277 280 285 291 297 301 308 312 316
283 279 283 284 288 291 297 286 289 299 302 301 303 303 310 315 311 298 297 296 284 276 275 277 268 260 243 241 259 263 278 277 274 276 276 272 273 274 271 272 275 275 279 282 288 294 300 304 309
279 280 275 283 285 290 293 280 295 301 299 297 300 304 303 306 309 308 302 295 295 291 288 280 278 267 256 255 262 267 266 276 276 277 274 265 268 271 271 272 270 275 277 279 279 283 286 294 298
275 275 279 284 290 290 285 285 297 302 299 296 297 300 300 298 302 308 311 305 300 291 287 285 275 264 259 262 269 265 268 258 274 277 275 267 263 266 268 273 276 274 276 277 275 277 280 286 290
272 275 279 279 289 288 284 282 290 294 297 297 297 298 300 300 300 302 303 303 302 298 292 284 279 267 267 269 273 278 274 273 268 271 274 270 266 264 265 274 274 273 275 275 275 276 278 282 284
275 277 278 284 288 289 286 284 288 295 294 294 296 298 299 300 302 301 302 301 300 298 291 284 279 268 269 270 270 271 271 273 274 271 271 273 272 267 263 269 272 271 270 273 272 275 274 278 285
272 275 277 285 288 289 287 282 287 292 293 295 298 298 300 304 304 304 302 301 299 300 294 286 276 274 271 269 269 271 274 278 276 275 271 272 272 270 267 265 269 269 272 273 271 271 277 279 275
270 272 277 281 289 289 290 280 286 290 293 296 299 301 303 305 306 303 302 300 300 301 298 293 283 272 268 267 271 274 277 280 279 274 272 267 269 269 268 268 263 267 267 270 271 270 268 276 276
271 279 280 282 285 283 289 281 288 292 293 299 303 306 304 306 307 307 303 299 299 300 297 296 291 282 274 270 269 266 268 271 272 274 275 274 269 268 268 267 269 266 268 267 268 269 268 270 275
275 282 280 281 282 285 282 285 286 295 293 298 303 310 313 312 311 308 306 302 298 300 298 298 293 286 281 275 271 271 271 273 277 278 276 276 278 270 269 267 268 268 267 266 265 267 265 266 268
281 281 285 286 284 278 280 282 281 289 294 300 309 308 312 316 316 317 315 310 298 298 299 298 295 287 285 281 277 273 274 274 276 276 276 277 278 276 271 268 265 267 268 268 267 266 266 264 267
270 276 278 279 276 277 287 281 280 290 296 298 302 307 313 320 324 324 325 324 317 308 303 299 297 292 288 285 282 279 276 276 273 274 276 276 278 277 275 272 271 269 269 268 268 268 267 265 264
268 266 270 276 278 283 287 282 286 293 299 304 305 308 313 319 323 323 324 324 321 320 318 312 306 300 297 292 289 286 282 281 280 279 278 279 278 278 281 277 274 273 270 269 268 268 268 267 266
271 265 269 277 282 284 284 287 292 294 295 300 304 307 314 318 320 322 324 325 325 322 322 323 321 320 317 309 299 295 290 287 285 283 281 280 281 281 281 278 274 274 272 269 267 268 268 268 267
266 274 274 272 278 279 285 286 288 299 303 304 303 310 314 315 318 320 322 323 324 324 322 321 323 324 322 319 315 311 304 293 292 289 285 283 283 282 280 278 278 278 275 273 270 269 268 267 267
263 266 273 280 276 280 284 287 293 294 299 300 306 312 313 313 316 316 316 321 322 324 326 326 326 325 323 320 316 312 309 303 299 297 291 289 286 284 282 280 277 278 278 274 272 271 270 266 266
260 262 262 270 278 282 284 287 305 303 303 308 311 311 316 319 316 314 312 312 315 318 320 321 322 318 317 317 314 312 307 307 305 303 299 293 290 288 286 282 279 276 276 277 273 273 273 268 267